Starlink 4214

operational
NORAD ID: 52877 Int'l Des: 2022-062 Owner: SPXS Country: US Constellation: starlink
LEOCIRCULAR

Über Starlink 4214

Beschreibung wird geladen...

Live-Position

3D-Globus wird geladen...

Nächste Überflüge

Höhenverlauf

Altitude vs Time

uPlot chart will show altitude changes over time

Zweizeiliger Elementsatz

1 52877U 22062AZ 26063.16202624 .00000177 00000-0 29228-4 0 9993
2 52877 53.2186 38.9456 0001346 86.1783 273.9363 15.08833213205237
Epoch: 4. März 2026 • Age: 11 hours

Aktueller Status

Höhe 543.9 km
Geschwindigkeit 7.59 km/s
Subsatellitenpunkt -14.31°S, 100.51°W
Startdatum 17. Juni 2022
Alter 3.7 years
Typ internet

Technische Details

Klassifizierung Payload
Masse 297.00 kg
Trockenmasse 275.00 kg
Gesamtmasse 297.00 kg
Länge 0.20 m
Durchmesser 2.80 m
Spannweite 9.00 m
Form Box + pan
Hersteller SPXS
Bus-Typ Starlink
Phasenstatus In Orbit
Besitzer/Staat SPXS/US

Große Konstellationen

Loading constellations...